TimeMDT,TemperatureF,Dew PointF,Humidity,Sea Level PressureIn,VisibilityMPH,Wind Direction,Wind SpeedMPH,Gust SpeedMPH,PrecipitationIn,Events,Conditions,WindDirDegrees,DateUTC
12:53 AM,54.0,34.0,47,29.76,10.0,North,16.1,-,N/A,,Scattered Clouds,10,2012-10-03 06:53:00
1:53 AM,50.0,33.1,52,29.80,10.0,NNE,16.1,-,N/A,,Partly Cloudy,20,2012-10-03 07:53:00
2:53 AM,46.9,34.0,61,29.85,10.0,North,15.0,-,N/A,,Clear,10,2012-10-03 08:53:00
3:53 AM,45.0,35.1,68,29.89,10.0,North,23.0,26.5,N/A,,Mostly Cloudy,10,2012-10-03 09:53:00
4:53 AM,44.1,36.0,73,29.94,10.0,NNE,21.9,27.6,N/A,,Overcast,20,2012-10-03 10:53:00
5:53 AM,42.1,32.0,67,29.99,10.0,NE,18.4,24.2,N/A,,Overcast,40,2012-10-03 11:53:00
6:53 AM,42.1,33.1,70,30.03,10.0,NNE,10.4,20.7,0.00,Rain,Light Rain,20,2012-10-03 12:53:00
7:27 AM,37.4,35.6,93,30.08,3.0,North,20.7,-,0.00,Rain-Snow,Light Rain,360,2012-10-03 13:27:00
7:43 AM,33.8,33.8,100,30.10,2.5,North,16.1,25.3,0.01,Rain-Snow,Light Rain,360,2012-10-03 13:43:00
7:53 AM,33.1,32.0,96,30.12,2.5,North,17.3,24.2,0.02,Snow,Light Snow,10,2012-10-03 13:53:00
8:01 AM,33.8,32.0,93,30.11,3.0,NNE,16.1,24.2,0.01,Snow,Light Snow,20,2012-10-03 14:01:00
8:03 AM,33.8,32.0,93,30.11,2.0,North,17.3,-,0.01,Snow,Light Snow,10,2012-10-03 14:03:00
8:29 AM,33.8,33.8,100,30.13,3.0,North,13.8,-,0.02,Rain-Snow,Light Rain,350,2012-10-03 14:29:00
8:37 AM,33.8,33.8,100,30.15,2.5,North,12.7,-,0.02,,Small Hail,350,2012-10-03 14:37:00
8:41 AM,33.8,33.8,100,30.16,1.5,NNW,10.4,-,0.03,Snow,Light Snow,340,2012-10-03 14:41:00
8:46 AM,33.8,32.0,93,30.16,1.0,NNW,11.5,-,0.03,Snow,Light Snow,340,2012-10-03 14:46:00
8:53 AM,33.1,32.0,96,30.18,0.8,North,15.0,-,0.03,Snow,Light Snow,350,2012-10-03 14:53:00
9:53 AM,33.1,32.0,96,30.25,0.8,NNW,11.5,-,0.14,Snow,Light Snow,330,2012-10-03 15:53:00
10:33 AM,33.8,32.0,93,30.24,1.0,NW,10.4,-,0.07,Snow,Light Snow,320,2012-10-03 16:33:00
10:44 AM,33.8,32.0,93,30.25,1.0,NW,10.4,-,0.09,Snow,Light Snow,310,2012-10-03 16:44:00
10:47 AM,33.8,32.0,93,30.25,1.5,NW,11.5,-,0.09,Snow,Light Snow,310,2012-10-03 16:47:00
10:53 AM,33.1,32.0,96,30.29,1.5,WNW,10.4,-,0.09,Snow,Light Snow,300,2012-10-03 16:53:00
10:55 AM,33.8,32.0,93,30.26,2.0,WNW,10.4,-,0.01,Snow,Light Snow,300,2012-10-03 16:55:00
11:05 AM,33.8,32.0,93,30.26,3.0,WNW,11.5,-,N/A,Snow,Light Snow,300,2012-10-03 17:05:00
11:34 AM,35.6,33.8,93,30.27,6.0,NW,12.7,-,0.04,Rain-Snow,Light Rain,310,2012-10-03 17:34:00
11:53 AM,35.1,33.1,92,30.31,7.0,WNW,11.5,-,0.05,Rain-Snow,Light Rain,300,2012-10-03 17:53:00
12:35 PM,37.4,35.6,93,30.30,10.0,NW,11.5,-,0.01,Rain,Light Rain,320,2012-10-03 18:35:00
12:53 PM,37.9,36.0,93,30.34,10.0,NW,12.7,-,0.01,,Overcast,320,2012-10-03 18:53:00
1:53 PM,39.9,37.0,89,30.36,10.0,NW,15.0,-,N/A,,Overcast,320,2012-10-03 19:53:00
2:26 PM,41.0,35.6,81,30.34,10.0,NNW,18.4,-,N/A,,Mostly Cloudy,330,2012-10-03 20:26:00
2:53 PM,42.1,37.0,82,30.38,10.0,NNW,13.8,-,N/A,,Mostly Cloudy,340,2012-10-03 20:53:00
3:08 PM,42.8,35.6,76,30.35,10.0,NNW,18.4,25.3,N/A,,Mostly Cloudy,340,2012-10-03 21:08:00
3:23 PM,42.8,33.8,70,30.35,10.0,North,16.1,25.3,N/A,,Mostly Cloudy,350,2012-10-03 21:23:00
3:53 PM,44.1,34.0,68,30.39,10.0,North,15.0,-,N/A,,Mostly Cloudy,350,2012-10-03 21:53:00
4:53 PM,44.1,33.1,65,30.41,10.0,NNW,13.8,20.7,N/A,,Scattered Clouds,330,2012-10-03 22:53:00
5:53 PM,39.9,35.1,83,30.45,10.0,North,9.2,-,N/A,,Scattered Clouds,10,2012-10-03 23:53:00
6:53 PM,39.9,34.0,79,30.47,10.0,NNW,4.6,-,N/A,,Partly Cloudy,330,2012-10-04 00:53:00
7:53 PM,39.0,33.1,79,30.51,10.0,North,8.1,-,N/A,,Scattered Clouds,350,2012-10-04 01:53:00
8:53 PM,37.9,32.0,79,30.53,10.0,North,5.8,-,N/A,,Mostly Cloudy,360,2012-10-04 02:53:00
9:53 PM,37.0,33.1,86,30.53,10.0,North,8.1,-,N/A,,Mostly Cloudy,360,2012-10-04 03:53:00
10:53 PM,37.0,32.0,82,30.53,10.0,NE,4.6,-,N/A,,Mostly Cloudy,40,2012-10-04 04:53:00
11:53 PM,36.0,32.0,86,30.53,10.0,NNW,3.5,-,N/A,,Mostly Cloudy,340,2012-10-04 05:53:00